Weather History for Atlantic City, NJ

Change the Weather History Date:

Sunday, February 10, 2013

  Actual Average Record
Temperature  
Mean Temperature 28 °F 34 °F  
Max Temperature 38 °F 43 °F 60 °F (1959)
Min Temperature 17 °F 26 °F -7 °F (1979)
Degree Days  
Heating Degree Days 37 31  
Month to date heating degree days 357 312  
Since 1 July heating degree days 2917 3073  
Cooling Degree Days 0 0  
Month to date cooling degree days 0 0  
Year to date cooling degree days 0 0  
Moisture  
Dew Point 13 °F    
Average Humidity 47    
Maximum Humidity 70    
Minimum Humidity 24    
Precipitation  
Precipitation 0.00 in 0.10 in 0.90 in (2010)
Month to date precipitation 2.33 0.97  
Year to date precipitation 4.63 4.19  
Snow  
Snow 0.00 in 0.20 in 11.10 in (1967)
Month to date snowfall 5.0 2.5  
Since 1 July snowfall 10.1 10.9  
Snow Depth 0.00 in    
Sea Level Pressure  
Sea Level Pressure 30.42 in    
Wind  
Wind Speed 6 mph (SW)    
Max Wind Speed 16 mph    
Max Gust Speed 20 mph    
Visibility 10 miles    
Events      
T = Trace of Precipitation, MM = Missing Value Source: NWS Daily Summary

Daily Weather History Graph

Daily Weather History Graph

Search for Another Location

Airport:

Trip Planner

Search our weather history database for the weather conditions in past years. The results will help you decide how hot, cold, wet, or windy it might be!

Date:

Astronomy

Feb. 10, 2013 Rise Set
Actual Time 6:56 AM EST 5:29 PM EST
Civil Twilight 6:28 AM EST 5:57 PM EST
Nautical Twilight 5:56 AM EST 6:28 PM EST
Astronomical Twilight 5:25 AM EST 7:00 PM EST
Moon 6:44 AM EST (2/10) 6:16 PM EST (2/10)
Length of Visible Light 11h 29m
Length of Day
10h 33m
New Moon, 0% of the Moon is Illuminated
Feb 10
New Moon
Feb 17
First Quarter
Feb 25
Full
Mar 4
Last Quarter
Mar 11
New

Hourly Weather History & Observations

Time (EST) Temp. Windchill Dew Point Humidity Pressure Visibility Wind Dir Wind Speed Gust Speed Precip Events Conditions
12:54 AM 21.9 °F 10.4 °F 8.1 °F 55% 30.38 in 10.0 mi NNW 11.5 mph - N/A   Clear
1:54 AM 21.0 °F 9.9 °F 9.0 °F 60% 30.40 in 10.0 mi NNW 10.4 mph - N/A   Clear
2:54 AM 19.9 °F 9.3 °F 8.1 °F 60% 30.40 in 10.0 mi NNW 9.2 mph - N/A   Clear
3:54 AM 19.0 °F 8.2 °F 8.1 °F 62% 30.41 in 10.0 mi NW 9.2 mph - N/A   Clear
4:54 AM 19.0 °F 11.1 °F 8.1 °F 62% 30.41 in 10.0 mi NNW 5.8 mph - N/A   Clear
5:54 AM 18.0 °F 11.1 °F 8.1 °F 65% 30.43 in 10.0 mi NNW 4.6 mph - N/A   Clear
6:54 AM 17.1 °F 10.0 °F 8.1 °F 68% 30.46 in 10.0 mi WNW 4.6 mph - N/A   Clear
7:54 AM 19.9 °F 14.9 °F 10.0 °F 65% 30.48 in 10.0 mi NNW 3.5 mph - N/A   Clear
8:54 AM 24.1 °F 15.2 °F 12.0 °F 60% 30.50 in 10.0 mi NNW 8.1 mph - N/A   Clear
9:54 AM 28.0 °F 22.8 °F 12.0 °F 51% 30.51 in 10.0 mi NW 4.6 mph - N/A   Clear
10:54 AM 33.1 °F - 9.0 °F 37% 30.50 in 10.0 mi Calm Calm - N/A   Clear
11:54 AM 34.0 °F - -0.0 °F 24% 30.47 in 10.0 mi Calm Calm - N/A   Clear
12:54 PM 35.1 °F 30.1 °F 9.0 °F 34% 30.44 in 10.0 mi SE 5.8 mph - N/A   Clear
1:54 PM 37.0 °F - 10.9 °F 34% 30.43 in 10.0 mi Calm Calm - N/A   Clear
2:54 PM 36.0 °F 29.0 °F 15.1 °F 43% 30.42 in 10.0 mi SE 9.2 mph - N/A   Clear
3:54 PM 35.1 °F 28.6 °F 14.0 °F 42% 30.41 in 10.0 mi SSE 8.1 mph - N/A   Clear
4:54 PM 33.1 °F 27.7 °F 12.9 °F 43% 30.41 in 10.0 mi South 5.8 mph - N/A   Clear
5:54 PM 30.0 °F 25.2 °F 16.0 °F 56% 30.43 in 10.0 mi South 4.6 mph - N/A   Clear
6:54 PM 30.9 °F 24.3 °F 17.1 °F 57% 30.42 in 10.0 mi SSE 6.9 mph - N/A   Clear
7:54 PM 32.0 °F 25.6 °F 19.9 °F 61% 30.39 in 10.0 mi SSE 6.9 mph - N/A   Clear
8:54 PM 33.1 °F 28.7 °F 23.0 °F 66% 30.40 in 10.0 mi South 4.6 mph - N/A   Clear
9:54 PM 34.0 °F 28.0 °F 25.0 °F 70% 30.38 in 10.0 mi South 6.9 mph - N/A   Clear
10:54 PM 36.0 °F 31.1 °F 27.0 °F 70% 30.34 in 10.0 mi SSE 5.8 mph - N/A   Clear
11:54 PM 37.0 °F 32.4 °F 30.0 °F 76% 30.35 in 10.0 mi South 5.8 mph - N/A   Clear